K1AWR Weather Reports


time (UTC)temp
F
wind
direction
speed
knots
gust
knots
rain 1hr
in
rain 24hr
in
rain mn
in
humidity
%
barometer
mb
20260504175235 71 321 2.6 3.5 0.00 0.00 0.00 30 1009.1
20260504174733 73 2 4.3 6.1 0.00 0.00 0.00 28 1009.3
20260504174231 74 178 1.7 6.1 0.00 0.00 0.00 33 1009.2
20260504173727 72 153 3.5 5.2 0.00 0.00 0.00 33 1009.3
20260504173224 70 175 3.5 5.2 0.00 0.00 0.00 33 1009.7
20260504172721 73 80 2.6 3.5 0.00 0.00 0.00 32 1009.3
20260504172217 71 205 0.9 7.8 0.00 0.00 0.00 30 1009.4
20260504171714 72 19 1.7 9.6 0.00 0.00 0.00 30 1009.7
20260504171211 72 0 5.2 7.0 0.00 0.00 0.00 32 1009.4
20260504170708 72 127 1.7 5.2 0.00 0.00 0.00 29 1009.7
20260504170206 72 185 4.3 6.1 0.00 0.00 0.00 31 1009.7
20260504160124 68 112 1.7 6.1 0.00 0.00 0.00 33 1010.6
20260504151051 66 200 1.7 5.2 0.00 0.00 0.00 37 1011.0
20260504150548 66 332 0.9 7.0 0.00 0.00 0.00 33 1011.2
20260504141014 64 305 1.7 2.6 0.00 0.00 0.00 38 1011.6
20260504140511 63 289 0.9 0.9 0.00 0.00 0.00 40 1011.6
20260504130435 62 213 3.5 3.5 0.00 0.00 0.00 41 1012.4
20260504110322 46 241 0.0 1.7 0.00 0.00 0.00 65 1012.5
20260504100240 36 192 0.0 0.0 0.00 0.00 0.00 89 1012.3
20260504081633 38 307 0.0 0.0 0.00 0.00 0.00 84 1011.8
20260504081129 38 287 0.0 0.0 0.00 0.00 0.00 83 1011.8
20260504080626 39 283 0.0 0.0 0.00 0.00 0.00 82 1011.9
20260504080122 39 283 0.0 0.0 0.00 0.00 0.00 81 1011.8
20260504050439 37 223 0.0 0.0 0.00 0.00 0.00 78 1012.2
20260504045936 37 301 0.0 0.0 0.00 0.00 0.00 77 1012.2
20260504045432 37 301 0.0 0.0 0.00 0.00 0.00 77 1012.0
20260504044928 37 301 0.0 0.0 0.00 0.00 0.00 75 1012.2
20260504044426 37 284 0.0 0.0 0.00 0.00 0.00 76 1012.4
20260504043923 37 284 0.0 0.0 0.00 0.00 0.00 75 1012.3
20260504043420 37 284 0.0 0.0 0.00 0.00 0.00 75 1012.3
20260504042917 38 284 0.0 0.0 0.00 0.00 0.00 75 1012.1
20260504042414 38 318 0.0 0.0 0.00 0.00 0.00 75 1012.1
20260504041910 38 331 0.0 0.0 0.00 0.00 0.00 74 1012.2
20260504041406 38 308 0.0 0.0 0.00 0.00 0.00 74 1012.0
20260504040902 38 305 0.0 0.9 0.00 0.00 0.00 73 1012.0
20260504040400 38 275 0.0 0.0 0.00 0.00 0.00 73 1012.0
20260504035856 38 275 0.0 0.0 0.00 0.00 0.00 72 1012.0
20260504035354 39 274 0.0 0.0 0.00 0.00 0.00 74 1012.0
20260504034850 39 319 0.0 0.0 0.00 0.00 0.00 73 1011.8
20260504034347 39 319 0.0 0.0 0.00 0.00 0.00 74 1012.0
20260504033844 39 316 0.0 0.0 0.00 0.00 0.00 74 1011.8
20260504033343 39 316 0.0 0.0 0.00 0.00 0.00 73 1011.8
20260504032839 40 316 0.0 0.0 0.00 0.00 0.00 74 1011.8
20260504032336 40 316 0.0 0.0 0.00 0.00 0.00 72 1012.0
20260504031833 40 316 0.0 0.0 0.00 0.00 0.00 71 1011.8
20260504031330 40 316 0.0 0.0 0.00 0.00 0.00 72 1011.7
20260504030826 40 317 0.0 0.0 0.00 0.00 0.00 70 1011.7
20260504030324 40 317 0.0 0.0 0.00 0.00 0.00 70 1011.8
20260504025820 40 316 0.0 0.0 0.00 0.00 0.00 72 1011.9
20260504025317 41 317 0.0 0.0 0.00 0.00 0.00 70 1011.9
20260504024813 41 315 0.0 0.0 0.00 0.00 0.00 72 1011.7
20260504024310 41 316 0.0 0.0 0.00 0.00 0.00 69 1011.8
20260504023807 41 317 0.0 0.0 0.00 0.00 0.00 73 1011.9
20260504023303 41 312 0.0 0.0 0.00 0.00 0.00 71 1011.8
20260504022759 41 312 0.0 0.0 0.00 0.00 0.00 71 1011.8
20260504022255 41 312 0.0 0.0 0.00 0.00 0.00 67 1011.7
20260504021752 41 312 0.0 0.0 0.00 0.00 0.00 71 1011.7
20260504021250 41 312 0.0 0.0 0.00 0.00 0.00 70 1011.5
20260504020747 42 312 0.0 0.0 0.00 0.00 0.00 68 1011.6
20260504020243 42 318 0.0 0.0 0.00 0.00 0.00 69 1011.6
20260504015739 42 318 0.0 0.0 0.00 0.00 0.00 69 1011.5
20260504015236 42 318 0.0 0.0 0.00 0.00 0.00 69 1011.6
20260504014732 42 318 0.0 0.0 0.00 0.00 0.00 69 1011.4
20260504014228 42 318 0.0 0.0 0.00 0.00 0.00 67 1011.5
20260504013726 42 318 0.0 0.0 0.00 0.00 0.00 63 1011.3
20260504013224 43 318 0.0 0.0 0.00 0.00 0.00 66 1011.1
20260504012720 43 318 0.0 0.0 0.00 0.00 0.00 65 1011.3
20260504012218 43 318 0.0 0.0 0.00 0.00 0.00 62 1011.2
20260504011715 44 318 0.0 0.0 0.00 0.00 0.00 61 1011.1
20260504011212 44 318 0.0 0.0 0.00 0.00 0.00 62 1011.2
20260504010708 44 318 0.0 0.0 0.00 0.00 0.00 54 1011.3
20260504010203 44 318 0.0 0.0 0.00 0.00 0.00 57 1011.2
20260504005700 44 318 0.0 0.0 0.00 0.00 0.00 62 1010.9
20260504005157 44 318 0.0 0.0 0.00 0.00 0.00 56 1010.8
20260504004655 45 318 0.0 0.0 0.00 0.00 0.00 64 1010.7
20260504004152 45 318 0.0 0.0 0.00 0.00 0.00 52 1010.7
20260504003648 46 318 0.0 0.0 0.00 0.00 0.00 58 1010.6
20260504003145 46 318 0.0 0.0 0.00 0.00 0.00 49 1010.6
20260504002642 47 318 0.0 0.0 0.00 0.00 0.00 51 1010.5
20260504002139 47 319 0.0 0.0 0.00 0.00 0.00 54 1010.3
20260504001637 48 319 0.0 0.0 0.00 0.00 0.00 45 1010.4
20260504001133 48 318 0.0 0.0 0.00 0.00 0.00 44 1010.2
20260504000630 49 319 0.0 0.0 0.00 0.00 0.00 49 1010.2
20260504000127 49 321 0.0 0.0 0.00 0.00 0.00 46 1010.0
20260503235626 50 5 0.9 0.9 0.00 0.00 0.00 40 1010.0
20260503235122 50 316 0.0 0.0 0.00 0.00 0.00 44 1009.9
20260503234620 51 330 0.0 0.0 0.00 0.00 0.00 43 1010.0
20260503234118 51 322 0.0 0.0 0.00 0.00 0.00 41 1010.0
20260503233615 53 311 0.0 0.0 0.00 0.00 0.00 37 1009.8
20260503233110 53 326 0.0 0.9 0.00 0.00 0.00 36 1009.9
20260503232607 54 6 0.0 0.9 0.00 0.00 0.00 34 1009.8
20260503232105 54 4 1.7 1.7 0.00 0.00 0.00 33 1009.7
20260503231603 54 300 0.9 1.7 0.00 0.00 0.00 33 1009.9
20260503231059 55 334 1.7 7.0 0.00 0.00 0.00 32 1009.5
20260503230555 55 359 0.0 1.7 0.00 0.00 0.00 36 1009.5
20260503230053 55 349 4.3 6.1 0.00 0.00 0.00 32 1009.5
20260503225550 55 357 2.6 5.2 0.00 0.00 0.00 34 1009.7
20260503225045 55 1 1.7 5.2 0.00 0.00 0.00 34 1009.7
20260503224543 55 326 2.6 3.5 0.00 0.00 0.00 36 1009.8
20260503224040 55 13 0.0 2.6 0.00 0.00 0.00 34 1009.7
20260503223538 55 354 0.0 0.9 0.00 0.00 0.00 33 1009.6
20260503223033 55 7 2.6 3.5 0.00 0.00 0.00 33 1009.5
20260503222532 55 329 1.7 3.5 0.00 0.00 0.00 33 1009.5
20260503222030 55 351 0.9 2.6 0.00 0.00 0.00 35 1009.6
20260503221528 55 358 5.2 8.7 0.00 0.00 0.00 32 1009.6
20260503221025 55 329 0.9 3.5 0.00 0.00 0.00 33 1009.5
20260503220521 55 13 2.6 7.0 0.00 0.00 0.00 34 1009.6
20260503220017 55 286 3.5 7.8 0.00 0.00 0.00 34 1009.7
20260503215515 55 314 4.3 6.1 0.00 0.00 0.00 34 1009.6
20260503215012 55 302 3.5 7.0 0.00 0.00 0.00 36 1009.7
20260503214510 56 6 1.7 3.5 0.00 0.00 0.00 35 1009.6
20260503214006 56 31 2.6 2.6 0.00 0.00 0.00 33 1009.6
20260503213505 56 359 2.6 3.5 0.00 0.00 0.00 36 1009.5
20260503213001 55 341 1.7 7.0 0.00 0.00 0.00 36 1009.4
20260503212459 55 328 3.5 5.2 0.00 0.00 0.00 34 1009.5
20260503211956 55 324 1.7 3.5 0.00 0.00 0.00 36 1009.8
20260503211453 54 20 2.6 2.6 0.00 0.00 0.00 34 1009.7
20260503210948 55 28 2.6 2.6 0.00 0.00 0.00 35 1009.7
20260503210446 54 17 2.6 8.7 0.00 0.00 0.00 35 1009.5
20260503205946 54 4 4.3 11.3 0.00 0.00 0.00 34 1009.7
20260503205443 55 12 3.5 6.1 0.00 0.00 0.00 35 1009.6
20260503204939 57 295 2.6 3.5 0.00 0.00 0.00 35 1009.5
20260503204436 56 9 3.5 6.1 0.00 0.00 0.00 35 1009.3
20260503203933 59 359 3.5 3.5 0.00 0.00 0.00 33 1009.6
20260503203431 57 20 6.1 8.7 0.00 0.00 0.00 34 1009.4
20260503202927 54 29 6.1 7.0 0.00 0.00 0.00 34 1009.4
20260503202426 53 300 3.5 5.2 0.00 0.00 0.00 37 1009.4
20260503201924 53 306 6.1 8.7 0.00 0.00 0.00 36 1009.4
20260503201421 54 35 6.1 7.8 0.00 0.00 0.00 37 1009.5
20260503200918 55 282 6.1 13.0 0.00 0.00 0.00 34 1009.5
20260503200414 55 309 6.1 12.2 0.00 0.00 0.00 34 1009.4
20260503195911 55 330 7.0 12.2 0.00 0.00 0.00 37 1009.2
20260503195409 55 8 3.5 6.1 0.00 0.00 0.00 35 1009.3
20260503194905 53 356 5.2 7.0 0.00 0.00 0.00 36 1009.2
20260503194401 54 331 7.0 8.7 0.00 0.00 0.00 34 1009.3
20260503193857 53 309 1.7 2.6 0.00 0.00 0.00 36 1009.3
20260503193353 53 244 3.5 14.8 0.00 0.00 0.00 36 1009.5
20260503192849 55 50 4.3 9.6 0.00 0.00 0.00 35 1009.2
20260503192345 55 332 5.2 6.1 0.00 0.00 0.00 37 1009.2
20260503191841 55 8 0.9 5.2 0.00 0.00 0.00 34 1009.3
20260503191339 54 276 8.7 12.2 0.00 0.00 0.00 34 1009.4
20260503190835 53 328 3.5 5.2 0.00 0.00 0.00 38 1009.3
20260503190332 53 308 3.5 6.1 0.00 0.00 0.00 36 1009.2
20260503185829 54 316 6.1 9.6 0.00 0.00 0.00 35 1009.1
20260503185326 54 344 4.3 12.2 0.00 0.00 0.00 38 1009.3
20260503184826 54 333 1.7 3.5 0.00 0.00 0.00 39 1009.2
20260503184322 55 10 3.5 5.2 0.00 0.00 0.00 34 1009.3
20260503183818 54 16 2.6 6.1 0.00 0.00 0.00 37 1009.4
20260503183315 53 37 5.2 8.7 0.00 0.00 0.00 35 1009.2
20260503182812 55 306 1.7 3.5 0.00 0.00 0.00 36 1009.2
20260503182312 54 13 2.6 7.8 0.00 0.00 0.00 35 1009.2
20260503181808 54 336 6.1 8.7 0.00 0.00 0.00 33 1009.3
20260503181305 53 27 3.5 3.5 0.00 0.00 0.00 38 1009.2
20260503180802 53 316 1.7 3.5 0.00 0.00 0.00 41 1009.2
20260503180300 53 57 2.6 5.2 0.00 0.00 0.00 37 1009.3
20260503175755 54 14 4.3 8.7 0.00 0.00 0.00 37 1009.4